| time (UTC) | temp F | wind direction | speed MPH | gust MPH | rain 1hr in | rain 24hr in | rain mn in | humidity % | barometer mb |
| 20260506091036 | 59 | 0 | 0.0 | 1.0 | 0.00 | 0.00 | 0.00 | 86 | 1018.3 |
| 20260506090536 | 59 | 0 | 0.0 | 2.0 | 0.00 | 0.00 | 0.00 | 86 | 1018.2 |
| 20260506090046 | 59 | 0 | 0.0 | 2.0 | 0.00 | 0.00 | 0.00 | 85 | 1018.3 |
| 20260506085536 | 60 | 0 | 0.0 | 1.0 | 0.00 | 0.00 | 0.00 | 85 | 1018.3 |
| 20260506085036 | 59 | 0 | 0.0 | 1.0 | 0.00 | 0.00 | 0.00 | 85 | 1018.4 |
| 20260506084550 | 60 | 0 | 0.0 | 1.0 | 0.00 | 0.00 | 0.00 | 85 | 1018.3 |
| 20260506084036 | 60 | 0 | 0.0 | 1.0 | 0.00 | 0.00 | 0.00 | 85 | 1018.3 |
| 20260506083538 | 60 | 0 | 0.0 | 2.0 | 0.00 | 0.00 | 0.00 | 85 | 1018.3 |
| 20260506083051 | 60 | 0 | 0.0 | 2.0 | 0.00 | 0.00 | 0.00 | 85 | 1018.2 |
| 20260506082536 | 60 | 0 | 0.0 | 2.0 | 0.00 | 0.00 | 0.00 | 85 | 1018.1 |
| 20260506082036 | 60 | 0 | 0.0 | 0.0 | 0.00 | 0.00 | 0.00 | 85 | 1018.2 |
| 20260506081544 | 60 | 0 | 0.0 | 1.0 | 0.00 | 0.00 | 0.00 | 85 | 1018.2 |
| 20260506081037 | 60 | 0 | 0.0 | 3.0 | 0.00 | 0.00 | 0.00 | 85 | 1018.2 |
| 20260506080537 | 60 | 142 | 0.0 | 3.0 | 0.00 | 0.00 | 0.00 | 85 | 1018.1 |
| 20260506073048 | 60 | 0 | 0.0 | 2.0 | 0.00 | 0.02 | 0.00 | 85 | 1017.8 |
| 20260506072540 | 60 | 142 | 0.0 | 2.0 | 0.00 | 0.02 | 0.00 | 85 | 1017.8 |
| 20260506072038 | 60 | 0 | 0.0 | 3.0 | 0.00 | 0.02 | 0.00 | 84 | 1017.8 |
| 20260506071548 | 60 | 0 | 0.0 | 3.0 | 0.00 | 0.02 | 0.00 | 84 | 1017.7 |
| 20260506071038 | 60 | 142 | 0.0 | 2.0 | 0.00 | 0.02 | 0.00 | 84 | 1017.6 |
| 20260506070537 | 60 | 0 | 0.0 | 4.0 | 0.00 | 0.02 | 0.00 | 84 | 1017.6 |
| 20260506062039 | 61 | 0 | 0.0 | 2.0 | 0.00 | 0.07 | 0.02 | 82 | 1017.2 |
| 20260506061551 | 61 | 0 | 0.0 | 1.0 | 0.00 | 0.07 | 0.02 | 82 | 1017.3 |
| 20260506061040 | 61 | 0 | 0.0 | 1.0 | 0.00 | 0.07 | 0.02 | 82 | 1017.1 |
| 20260506060537 | 61 | 0 | 0.0 | 2.0 | 0.00 | 0.07 | 0.02 | 82 | 1017.1 |
| 20260506060104 | 61 | 0 | 0.0 | 2.0 | 0.00 | 0.07 | 0.02 | 82 | 1017.2 |
| 20260506051036 | 61 | 178 | 0.0 | 4.0 | 0.00 | 0.08 | 0.02 | 81 | 1016.7 |
| 20260506050536 | 62 | 0 | 0.0 | 5.0 | 0.00 | 0.08 | 0.02 | 81 | 1016.7 |
| 20260506045039 | 62 | 0 | 0.0 | 2.0 | 0.00 | 0.15 | 0.02 | 80 | 1016.6 |
| 20260506044603 | 62 | 0 | 0.0 | 2.0 | 0.00 | 0.15 | 0.02 | 80 | 1016.4 |
| 20260506044039 | 62 | 0 | 0.0 | 3.0 | 0.00 | 0.15 | 0.02 | 79 | 1016.4 |
| 20260506043537 | 62 | 0 | 0.0 | 3.0 | 0.00 | 0.15 | 0.02 | 79 | 1016.3 |
| 20260506043049 | 62 | 147 | 0.0 | 3.0 | 0.00 | 0.15 | 0.02 | 79 | 1016.3 |
| 20260506042537 | 62 | 0 | 0.0 | 3.0 | 0.00 | 0.15 | 0.02 | 79 | 1016.3 |
| 20260506042038 | 62 | 0 | 0.0 | 4.0 | 0.00 | 0.15 | 0.02 | 79 | 1016.2 |
| 20260506041552 | 62 | 147 | 1.0 | 4.0 | 0.00 | 0.15 | 0.02 | 78 | 1016.2 |
| 20260506041037 | 62 | 147 | 1.0 | 5.0 | 0.00 | 0.15 | 0.02 | 78 | 1016.2 |
| 20260506040536 | 62 | 147 | 1.0 | 5.0 | 0.00 | 0.15 | 0.02 | 78 | 1016.1 |
| 20260506040048 | 62 | 148 | 2.0 | 5.0 | 0.00 | 0.15 | 0.02 | 78 | 1016.0 |
| 20260506035541 | 62 | 140 | 1.0 | 6.0 | 0.00 | 0.25 | 0.02 | 78 | 1015.9 |
| 20260506035037 | 63 | 137 | 1.0 | 6.0 | 0.00 | 0.25 | 0.02 | 78 | 1015.8 |
| 20260506034544 | 63 | 147 | 1.0 | 8.0 | 0.00 | 0.25 | 0.02 | 77 | 1015.7 |
| 20260506034036 | 63 | 140 | 3.0 | 8.0 | 0.00 | 0.25 | 0.02 | 77 | 1015.6 |
| 20260506033536 | 63 | 142 | 2.0 | 8.0 | 0.00 | 0.25 | 0.02 | 77 | 1015.4 |
| 20260506033049 | 63 | 143 | 2.0 | 6.0 | 0.00 | 0.25 | 0.02 | 77 | 1015.5 |
| 20260506032539 | 63 | 144 | 2.0 | 5.0 | 0.00 | 0.25 | 0.02 | 76 | 1015.5 |
| 20260506032041 | 63 | 129 | 1.0 | 4.0 | 0.00 | 0.25 | 0.02 | 75 | 1015.5 |
| 20260506031551 | 63 | 104 | 1.0 | 4.0 | 0.00 | 0.25 | 0.02 | 75 | 1015.4 |
| 20260506031040 | 63 | 104 | 0.0 | 4.0 | 0.00 | 0.25 | 0.02 | 75 | 1015.3 |
| 20260506030539 | 63 | 105 | 1.0 | 4.0 | 0.00 | 0.25 | 0.02 | 74 | 1015.3 |
| 20260506030048 | 63 | 101 | 0.0 | 4.0 | 0.00 | 0.25 | 0.02 | 74 | 1015.1 |
| 20260506025536 | 63 | 98 | 2.0 | 6.0 | 0.00 | 0.31 | 0.02 | 74 | 1015.1 |
| 20260506025036 | 64 | 96 | 1.0 | 6.0 | 0.00 | 0.31 | 0.02 | 73 | 1015.1 |
| 20260506024556 | 64 | 96 | 1.0 | 6.0 | 0.00 | 0.31 | 0.02 | 74 | 1015.0 |
| 20260506024036 | 64 | 146 | 1.0 | 4.0 | 0.00 | 0.31 | 0.02 | 74 | 1015.0 |
| 20260506023537 | 64 | 105 | 1.0 | 4.0 | 0.00 | 0.31 | 0.02 | 74 | 1014.9 |
| 20260506023053 | 64 | 105 | 2.0 | 4.0 | 0.00 | 0.31 | 0.02 | 74 | 1014.8 |
| 20260506022537 | 64 | 107 | 0.0 | 4.0 | 0.00 | 0.31 | 0.02 | 74 | 1014.7 |
| 20260506022036 | 64 | 107 | 1.0 | 4.0 | 0.00 | 0.31 | 0.02 | 73 | 1014.8 |
| 20260506021549 | 64 | 107 | 2.0 | 4.0 | 0.00 | 0.31 | 0.02 | 72 | 1014.7 |
| 20260506021039 | 64 | 109 | 0.0 | 4.0 | 0.00 | 0.31 | 0.02 | 72 | 1014.6 |
| 20260506020539 | 65 | 0 | 0.0 | 4.0 | 0.00 | 0.31 | 0.02 | 72 | 1014.6 |
| 20260506020047 | 65 | 108 | 0.0 | 4.0 | 0.00 | 0.31 | 0.02 | 72 | 1014.6 |
| 20260506015539 | 65 | 0 | 1.0 | 4.0 | 0.00 | 0.45 | 0.02 | 72 | 1014.6 |
| 20260506015037 | 65 | 112 | 1.0 | 7.0 | 0.00 | 0.45 | 0.02 | 72 | 1014.6 |
| 20260506014546 | 65 | 112 | 1.0 | 7.0 | 0.00 | 0.45 | 0.02 | 71 | 1014.5 |
| 20260506014039 | 65 | 161 | 2.0 | 7.0 | 0.00 | 0.45 | 0.02 | 71 | 1014.4 |
| 20260506013536 | 65 | 109 | 2.0 | 7.0 | 0.00 | 0.45 | 0.02 | 71 | 1014.5 |
| 20260506013046 | 65 | 157 | 2.0 | 6.0 | 0.00 | 0.45 | 0.02 | 71 | 1014.5 |
| 20260506012536 | 65 | 146 | 2.0 | 7.0 | 0.00 | 0.45 | 0.02 | 71 | 1014.5 |
| 20260506012039 | 65 | 147 | 2.0 | 7.0 | 0.00 | 0.45 | 0.02 | 70 | 1014.4 |
| 20260506011550 | 65 | 0 | 3.0 | 7.0 | 0.00 | 0.45 | 0.02 | 70 | 1014.4 |
| 20260506011036 | 65 | 136 | 2.0 | 9.0 | 0.00 | 0.45 | 0.02 | 70 | 1014.4 |
| 20260506010539 | 65 | 148 | 2.0 | 9.0 | 0.00 | 0.45 | 0.02 | 70 | 1014.4 |
| 20260506010049 | 65 | 132 | 3.0 | 9.0 | 0.00 | 0.45 | 0.02 | 70 | 1014.3 |
| 20260506005537 | 65 | 117 | 1.0 | 7.0 | 0.00 | 0.56 | 0.02 | 70 | 1014.3 |
| 20260506005036 | 65 | 110 | 3.0 | 7.0 | 0.00 | 0.56 | 0.02 | 69 | 1014.2 |
| 20260506004552 | 65 | 148 | 1.0 | 7.0 | 0.00 | 0.56 | 0.02 | 70 | 1014.3 |
| 20260506004036 | 65 | 125 | 2.0 | 7.0 | 0.00 | 0.56 | 0.02 | 70 | 1014.3 |
| 20260506003539 | 65 | 109 | 3.0 | 7.0 | 0.00 | 0.56 | 0.02 | 70 | 1014.3 |
| 20260506003054 | 65 | 149 | 3.0 | 7.0 | 0.00 | 0.56 | 0.02 | 70 | 1014.3 |
| 20260506002539 | 65 | 153 | 3.0 | 7.0 | 0.00 | 0.56 | 0.02 | 69 | 1014.3 |
| 20260506002039 | 65 | 95 | 1.0 | 7.0 | 0.00 | 0.56 | 0.02 | 70 | 1014.3 |
| 20260506001606 | 65 | 90 | 3.0 | 7.0 | 0.00 | 0.56 | 0.02 | 70 | 1014.2 |
| 20260506001039 | 65 | 0 | 1.0 | 6.0 | 0.00 | 0.56 | 0.02 | 69 | 1014.2 |
| 20260506000539 | 65 | 106 | 2.0 | 6.0 | 0.00 | 0.56 | 0.02 | 68 | 1014.2 |
| 20260506000049 | 65 | 80 | 1.0 | 4.0 | 0.00 | 0.56 | 0.02 | 70 | 1014.2 |
| 20260505235536 | 65 | 79 | 1.0 | 5.0 | 0.00 | 0.58 | 0.02 | 68 | 1014.1 |
| 20260505235036 | 65 | 78 | 2.0 | 5.0 | 0.00 | 0.58 | 0.02 | 69 | 1014.2 |
| 20260505234550 | 65 | 77 | 1.0 | 5.0 | 0.00 | 0.58 | 0.02 | 70 | 1014.2 |
| 20260505234040 | 65 | 81 | 1.0 | 6.0 | 0.00 | 0.58 | 0.02 | 70 | 1014.2 |
| 20260505233536 | 65 | 80 | 3.0 | 6.0 | 0.00 | 0.58 | 0.02 | 69 | 1014.3 |
| 20260505233045 | 65 | 116 | 1.0 | 4.0 | 0.00 | 0.58 | 0.02 | 70 | 1014.3 |
| 20260505232537 | 65 | 88 | 1.0 | 6.0 | 0.00 | 0.58 | 0.02 | 69 | 1014.3 |
| 20260505232036 | 65 | 89 | 2.0 | 6.0 | 0.00 | 0.58 | 0.02 | 70 | 1014.3 |
| 20260505231557 | 65 | 103 | 1.0 | 6.0 | 0.00 | 0.58 | 0.02 | 69 | 1014.3 |
| 20260505231036 | 65 | 90 | 2.0 | 6.0 | 0.00 | 0.58 | 0.02 | 70 | 1014.3 |
| 20260505230536 | 65 | 83 | 2.0 | 6.0 | 0.00 | 0.58 | 0.02 | 69 | 1014.3 |
| 20260505230055 | 65 | 100 | 3.0 | 6.0 | 0.00 | 0.58 | 0.02 | 69 | 1014.3 |
| 20260505225536 | 65 | 85 | 0.0 | 6.0 | 0.00 | 0.67 | 0.02 | 70 | 1014.4 |
| 20260505225041 | 65 | 0 | 1.0 | 5.0 | 0.00 | 0.67 | 0.02 | 70 | 1014.4 |
| 20260505224549 | 66 | 175 | 2.0 | 5.0 | 0.00 | 0.67 | 0.02 | 69 | 1014.5 |
| 20260505224036 | 66 | 132 | 0.0 | 3.0 | 0.00 | 0.67 | 0.02 | 70 | 1014.5 |
| 20260505223539 | 66 | 133 | 0.0 | 5.0 | 0.00 | 0.67 | 0.02 | 68 | 1014.5 |
| 20260505223048 | 66 | 0 | 1.0 | 6.0 | 0.00 | 0.67 | 0.02 | 69 | 1014.5 |
| 20260505222537 | 66 | 0 | 1.0 | 6.0 | 0.00 | 0.67 | 0.02 | 71 | 1014.6 |
| 20260505222039 | 65 | 0 | 1.0 | 4.0 | 0.00 | 0.67 | 0.02 | 70 | 1014.6 |
| 20260505221548 | 65 | 108 | 0.0 | 5.0 | 0.00 | 0.67 | 0.02 | 72 | 1014.7 |
| 20260505221037 | 65 | 174 | 1.0 | 5.0 | 0.00 | 0.67 | 0.02 | 73 | 1014.7 |
| 20260505220536 | 64 | 0 | 1.0 | 3.0 | 0.00 | 0.67 | 0.02 | 74 | 1014.7 |
| 20260505220044 | 64 | 0 | 0.0 | 2.0 | 0.00 | 0.67 | 0.02 | 71 | 1014.9 |
| 20260505215539 | 64 | 207 | 0.0 | 2.0 | 0.00 | 0.71 | 0.02 | 70 | 1015.0 |
| 20260505215036 | 64 | 0 | 0.0 | 6.0 | 0.00 | 0.71 | 0.02 | 73 | 1014.9 |
| 20260505214550 | 64 | 0 | 0.0 | 6.0 | 0.00 | 0.71 | 0.02 | 72 | 1015.0 |
| 20260505214037 | 63 | 0 | 2.0 | 6.0 | 0.00 | 0.71 | 0.02 | 72 | 1015.1 |
| 20260505213536 | 64 | 216 | 1.0 | 6.0 | 0.00 | 0.71 | 0.02 | 72 | 1015.1 |
| 20260505213056 | 64 | 214 | 1.0 | 6.0 | 0.00 | 0.71 | 0.02 | 72 | 1015.1 |
| 20260505212536 | 64 | 0 | 0.0 | 3.0 | 0.00 | 0.71 | 0.02 | 74 | 1015.1 |
| 20260505212036 | 64 | 0 | 0.0 | 3.0 | 0.00 | 0.71 | 0.02 | 71 | 1015.1 |
| 20260505211547 | 64 | 173 | 0.0 | 3.0 | 0.00 | 0.71 | 0.02 | 73 | 1015.1 |
| 20260505211041 | 64 | 219 | 0.0 | 6.0 | 0.00 | 0.71 | 0.02 | 74 | 1015.1 |
| 20260505210537 | 63 | 219 | 2.0 | 7.0 | 0.00 | 0.71 | 0.02 | 73 | 1015.1 |
| 20260505210054 | 64 | 0 | 1.0 | 7.0 | 0.00 | 0.71 | 0.02 | 75 | 1015.1 |
| 20260505205538 | 64 | 0 | 0.0 | 6.0 | 0.00 | 0.74 | 0.02 | 73 | 1015.1 |
| 20260505205035 | 64 | 216 | 1.0 | 7.0 | 0.00 | 0.74 | 0.02 | 74 | 1015.1 |
| 20260505204559 | 64 | 0 | 0.0 | 7.0 | 0.00 | 0.74 | 0.02 | 77 | 1015.1 |
| 20260505204039 | 64 | 218 | 2.0 | 7.0 | 0.00 | 0.74 | 0.02 | 75 | 1015.1 |
| 20260505203536 | 62 | 0 | 1.0 | 6.0 | 0.00 | 0.74 | 0.02 | 78 | 1015.1 |
| 20260505203103 | 62 | 195 | 0.0 | 8.0 | 0.00 | 0.74 | 0.02 | 79 | 1015.2 |
| 20260505202537 | 61 | 163 | 1.0 | 8.0 | 0.00 | 0.74 | 0.02 | 79 | 1015.2 |
| 20260505202036 | 61 | 221 | 3.0 | 8.0 | 0.00 | 0.74 | 0.02 | 79 | 1015.3 |
| 20260505201554 | 61 | 225 | 1.0 | 5.0 | 0.00 | 0.74 | 0.02 | 80 | 1015.3 |
| 20260505201038 | 61 | 223 | 2.0 | 7.0 | 0.00 | 0.74 | 0.02 | 80 | 1015.4 |
| 20260505200538 | 61 | 223 | 3.0 | 7.0 | 0.00 | 0.74 | 0.02 | 79 | 1015.4 |
| 20260505200050 | 61 | 184 | 0.0 | 4.0 | 0.00 | 0.74 | 0.02 | 78 | 1015.3 |
| 20260505195541 | 61 | 0 | 0.0 | 4.0 | 0.00 | 0.74 | 0.02 | 79 | 1015.4 |
| 20260505195037 | 61 | 0 | 1.0 | 4.0 | 0.00 | 0.74 | 0.02 | 79 | 1015.3 |
| 20260505194550 | 61 | 0 | 2.0 | 4.0 | 0.00 | 0.74 | 0.02 | 78 | 1015.4 |
| 20260505194036 | 61 | 0 | 1.0 | 7.0 | 0.00 | 0.74 | 0.02 | 80 | 1015.5 |
| 20260505193537 | 61 | 203 | 2.0 | 7.0 | 0.00 | 0.74 | 0.02 | 78 | 1015.5 |
| 20260505193050 | 61 | 290 | 2.0 | 7.0 | 0.00 | 0.74 | 0.02 | 79 | 1015.5 |
| 20260505192539 | 61 | 0 | 1.0 | 5.0 | 0.00 | 0.74 | 0.02 | 78 | 1015.5 |
| 20260505192036 | 61 | 0 | 0.0 | 4.0 | 0.00 | 0.74 | 0.02 | 79 | 1015.5 |
| 20260505191610 | 61 | 0 | 0.0 | 3.0 | 0.00 | 0.74 | 0.02 | 78 | 1015.4 |
| 20260505191036 | 61 | 0 | 0.0 | 5.0 | 0.00 | 0.74 | 0.02 | 77 | 1015.4 |
| 20260505190538 | 61 | 0 | 1.0 | 5.0 | 0.00 | 0.74 | 0.02 | 78 | 1015.4 |
| 20260505190050 | 61 | 192 | 1.0 | 5.0 | 0.00 | 0.74 | 0.02 | 79 | 1015.4 |
| 20260505185537 | 61 | 227 | 1.0 | 5.0 | 0.00 | 0.74 | 0.02 | 78 | 1015.5 |
| 20260505185038 | 60 | 146 | 1.0 | 6.0 | 0.00 | 0.74 | 0.02 | 80 | 1015.5 |
| 20260505184549 | 61 | 132 | 3.0 | 6.0 | 0.00 | 0.74 | 0.02 | 79 | 1015.4 |
| 20260505184037 | 61 | 172 | 0.0 | 5.0 | 0.00 | 0.74 | 0.02 | 81 | 1015.4 |
| 20260505183536 | 60 | 164 | 1.0 | 5.0 | 0.00 | 0.74 | 0.02 | 81 | 1015.4 |
| 20260505183049 | 60 | 177 | 0.0 | 3.0 | 0.00 | 0.74 | 0.02 | 81 | 1015.4 |
| 20260505182536 | 60 | 0 | 0.0 | 3.0 | 0.00 | 0.74 | 0.02 | 81 | 1015.4 |
| 20260505182038 | 59 | 0 | 0.0 | 3.0 | 0.00 | 0.74 | 0.02 | 81 | 1015.4 |
| 20260505181544 | 59 | 178 | 0.0 | 3.0 | 0.00 | 0.74 | 0.02 | 81 | 1015.4 |
| 20260505181040 | 59 | 184 | 1.0 | 5.0 | 0.00 | 0.74 | 0.02 | 82 | 1015.3 |
| 20260505180536 | 59 | 0 | 0.0 | 5.0 | 0.00 | 0.74 | 0.02 | 82 | 1015.4 |
| 20260505180100 | 59 | 158 | 0.0 | 4.0 | 0.00 | 0.74 | 0.02 | 82 | 1015.4 |
| 20260505175536 | 60 | 175 | 0.0 | 3.0 | 0.00 | 0.74 | 0.02 | 84 | 1015.4 |
| 20260505175039 | 59 | 0 | 1.0 | 3.0 | 0.00 | 0.74 | 0.02 | 83 | 1015.3 |
| 20260505174554 | 60 | 0 | 0.0 | 3.0 | 0.00 | 0.74 | 0.02 | 84 | 1015.3 |
| 20260505174038 | 59 | 0 | 0.0 | 3.0 | 0.00 | 0.74 | 0.02 | 86 | 1015.3 |
| 20260505173536 | 58 | 0 | 0.0 | 3.0 | 0.00 | 0.74 | 0.02 | 87 | 1015.3 |
| 20260505173049 | 58 | 140 | 0.0 | 5.0 | 0.00 | 0.74 | 0.02 | 88 | 1015.3 |
| 20260505172537 | 57 | 142 | 1.0 | 5.0 | 0.00 | 0.74 | 0.02 | 87 | 1015.3 |
| 20260505172039 | 57 | 150 | 2.0 | 5.0 | 0.00 | 0.74 | 0.02 | 88 | 1015.3 |
| 20260505171548 | 57 | 0 | 0.0 | 5.0 | 0.00 | 0.74 | 0.02 | 89 | 1015.3 |
| 20260505171035 | 57 | 0 | 2.0 | 6.0 | 0.00 | 0.74 | 0.02 | 88 | 1015.4 |
| 20260505170540 | 57 | 154 | 2.0 | 6.0 | 0.00 | 0.74 | 0.02 | 89 | 1015.4 |
| 20260505170046 | 57 | 0 | 1.0 | 7.0 | 0.00 | 0.74 | 0.02 | 89 | 1015.4 |
| 20260505165536 | 56 | 0 | 2.0 | 7.0 | 0.00 | 0.74 | 0.02 | 90 | 1015.3 |
| 20260505165036 | 56 | 0 | 1.0 | 5.0 | 0.00 | 0.74 | 0.02 | 90 | 1015.3 |
| 20260505164543 | 56 | 0 | 0.0 | 5.0 | 0.00 | 0.74 | 0.02 | 91 | 1015.3 |
| 20260505164037 | 56 | 143 | 1.0 | 5.0 | 0.00 | 0.74 | 0.02 | 90 | 1015.2 |
| 20260505163538 | 56 | 157 | 1.0 | 5.0 | 0.00 | 0.74 | 0.02 | 91 | 1015.2 |
| 20260505163048 | 56 | 134 | 2.0 | 4.0 | 0.00 | 0.74 | 0.02 | 92 | 1015.2 |
| 20260505162536 | 56 | 0 | 1.0 | 7.0 | 0.00 | 0.74 | 0.02 | 92 | 1015.1 |
| 20260505162037 | 55 | 112 | 2.0 | 7.0 | 0.00 | 0.74 | 0.02 | 92 | 1015.1 |
| 20260505161552 | 55 | 160 | 2.0 | 9.0 | 0.00 | 0.74 | 0.02 | 93 | 1015.1 |
| 20260505161037 | 55 | 177 | 3.0 | 9.0 | 0.00 | 0.74 | 0.02 | 93 | 1015.1 |
| 20260505160537 | 55 | 133 | 2.0 | 9.0 | 0.00 | 0.74 | 0.02 | 93 | 1015.1 |
| 20260505153048 | 54 | 0 | 1.0 | 4.0 | 0.00 | 0.74 | 0.02 | 94 | 1015.0 |
| 20260505152538 | 54 | 113 | 0.0 | 4.0 | 0.00 | 0.74 | 0.02 | 94 | 1014.9 |
| 20260505152035 | 54 | 118 | 0.0 | 6.0 | 0.00 | 0.74 | 0.02 | 94 | 1014.8 |
| 20260505151548 | 53 | 139 | 2.0 | 6.0 | 0.00 | 0.74 | 0.02 | 94 | 1014.8 |
| 20260505151043 | 53 | 0 | 0.0 | 3.0 | 0.00 | 0.74 | 0.02 | 94 | 1014.8 |
| 20260505150537 | 53 | 143 | 0.0 | 4.0 | 0.00 | 0.74 | 0.02 | 94 | 1014.7 |
| 20260505140536 | 53 | 0 | 0.0 | 4.0 | 0.00 | 0.74 | 0.02 | 94 | 1014.0 |
| 20260505125036 | 52 | 0 | 0.0 | 2.0 | 0.00 | 0.74 | 0.02 | 94 | 1013.7 |
| 20260505124607 | 52 | 0 | 0.0 | 4.0 | 0.00 | 0.74 | 0.02 | 94 | 1013.7 |
| 20260505124037 | 52 | 0 | 0.0 | 4.0 | 0.00 | 0.74 | 0.02 | 94 | 1013.7 |
| 20260505123537 | 52 | 149 | 1.0 | 3.0 | 0.00 | 0.74 | 0.02 | 94 | 1013.6 |
| 20260505123106 | 52 | 0 | 0.0 | 4.0 | 0.00 | 0.74 | 0.02 | 94 | 1013.5 |
| 20260505122536 | 52 | 0 | 0.0 | 5.0 | 0.00 | 0.74 | 0.02 | 94 | 1013.4 |
| 20260505122037 | 52 | 156 | 0.0 | 6.0 | 0.00 | 0.74 | 0.02 | 94 | 1013.5 |
| 20260505121552 | 52 | 174 | 1.0 | 6.0 | 0.00 | 0.74 | 0.02 | 94 | 1013.6 |
| 20260505121040 | 52 | 141 | 1.0 | 5.0 | 0.00 | 0.74 | 0.02 | 94 | 1013.5 |
| 20260505120536 | 53 | 0 | 0.0 | 5.0 | 0.00 | 0.74 | 0.02 | 94 | 1013.6 |
| 20260505120056 | 53 | 0 | 0.0 | 8.0 | 0.00 | 0.74 | 0.02 | 94 | 1013.7 |
| 20260505115539 | 53 | 173 | 1.0 | 8.0 | 0.00 | 0.74 | 0.02 | 94 | 1013.7 |
| 20260505115039 | 53 | 0 | 3.0 | 8.0 | 0.00 | 0.74 | 0.02 | 94 | 1013.7 |
| 20260505114556 | 53 | 0 | 0.0 | 5.0 | 0.00 | 0.74 | 0.02 | 94 | 1013.6 |
| 20260505114039 | 53 | 156 | 0.0 | 5.0 | 0.00 | 0.74 | 0.02 | 94 | 1013.6 |
| 20260505113535 | 53 | 0 | 0.0 | 5.0 | 0.00 | 0.74 | 0.02 | 94 | 1013.5 |
| 20260505113054 | 53 | 0 | 1.0 | 5.0 | 0.00 | 0.74 | 0.02 | 94 | 1013.5 |
| 20260505112539 | 53 | 150 | 0.0 | 5.0 | 0.00 | 0.74 | 0.02 | 94 | 1013.5 |
| 20260505112039 | 53 | 0 | 0.0 | 5.0 | 0.00 | 0.74 | 0.02 | 94 | 1013.5 |
| 20260505111555 | 53 | 0 | 0.0 | 2.0 | 0.00 | 0.74 | 0.02 | 94 | 1013.6 |
| 20260505111036 | 53 | 0 | 0.0 | 2.0 | 0.00 | 0.74 | 0.02 | 94 | 1013.6 |
| 20260505110540 | 53 | 0 | 0.0 | 1.0 | 0.00 | 0.74 | 0.02 | 94 | 1013.7 |
| 20260505102039 | 53 | 0 | 0.0 | 0.0 | 0.00 | 0.74 | 0.02 | 94 | 1013.6 |
| 20260505101605 | 53 | 0 | 0.0 | 5.0 | 0.00 | 0.74 | 0.02 | 94 | 1013.6 |
| 20260505101036 | 53 | 0 | 0.0 | 5.0 | 0.00 | 0.74 | 0.02 | 94 | 1013.7 |
| 20260505100536 | 53 | 152 | 0.0 | 3.0 | 0.00 | 0.74 | 0.02 | 94 | 1013.7 |
| 20260505095539 | 53 | 0 | 0.0 | 4.0 | 0.00 | 0.74 | 0.02 | 94 | 1013.7 |
| 20260505095036 | 53 | 138 | 0.0 | 4.0 | 0.00 | 0.74 | 0.02 | 94 | 1013.7 |
| 20260505094549 | 53 | 0 | 0.0 | 3.0 | 0.00 | 0.74 | 0.02 | 94 | 1013.7 |
| 20260505094036 | 53 | 0 | 0.0 | 2.0 | 0.00 | 0.74 | 0.02 | 94 | 1013.7 |
| 20260505093539 | 53 | 0 | 0.0 | 2.0 | 0.00 | 0.74 | 0.02 | 94 | 1013.8 |
| 20260505093059 | 53 | 0 | 0.0 | 5.0 | 0.00 | 0.74 | 0.02 | 94 | 1013.8 |
| 20260505092537 | 53 | 0 | 0.0 | 5.0 | 0.00 | 0.74 | 0.02 | 94 | 1013.8 |
| 20260505092037 | 53 | 144 | 1.0 | 6.0 | 0.00 | 0.74 | 0.02 | 94 | 1013.8 |
| 20260505091544 | 53 | 146 | 0.0 | 6.0 | 0.00 | 0.74 | 0.02 | 94 | 1013.9 |